Temp
24 23 23 23 22 24 25 23 24 24 24 23 22 21 21 22 22 21 21 21 21 21 22 22 22 22 21 21 21 21 21 21 20 20 20 20 19 19 20 20 20 19 19 19
23 24 25 25 23 24 24 23 23 25 23 24 22 22 22 22 22 22 21 21 22 22 22 22 22 22 22 22 22 21 21 21 21 20 20 20 19 19 19 20 20 20 20 19
24 26 25 26 25 25 25 22 25 25 23 23 22 22 22 22 22 22 22 22 23 23 23 23 23 23 22 22 22 22 22 21 21 20 20 19 19 19 19 19 20 20 20 20
23 25 26 25 26 24 26 26 24 22 22 21 23 21 21 21 22 22 22 22 23 23 23 24 23 23 23 23 23 22 22 22 21 20 20 19 20 19 20 20 19 19 20 20
24 25 25 25 26 23 25 24 24 23 20 22 22 21 20 19 20 21 21 23 23 23 23 24 24 24 23 23 23 22 22 21 21 20 20 20 20 19 20 20 19 19 19 19
23 25 25 26 23 24 22 21 18 16 17 20 19 19 18 17 18 20 21 22 22 22 22 24 23 23 23 23 22 22 22 21 21 20 20 20 19 19 19 19 19 19 19 19
22 24 23 25 25 23 20 18 18 20 18 19 16 17 20 18 18 19 20 18 21 22 21 21 20 20 22 22 22 22 22 21 20 20 20 20 20 19 19 19 19 19 19 20
20 22 25 24 25 23 20 19 17 20 18 18 17 17 17 19 18 17 18 18 21 21 20 19 20 21 21 22 22 21 21 21 21 20 20 20 19 19 19 19 18 19 19 19
20 22 23 24 24 23 21 19 17 14 14 16 18 19 20 19 18 17 17 18 19 21 21 18 19 20 20 20 20 20 20 20 20 20 20 19 19 19 19 19 19 19 20 21
19 21 22 23 23 20 22 17 19 14 18 17 18 18 18 18 16 16 16 17 17 18 18 18 18 18 18 18 19 19 20 20 20 20 20 19 19 18 18 18 19 19 20 20
18 18 22 20 19 20 19 18 13 12 13 15 15 17 16 15 16 15 15 15 16 17 17 16 17 17 17 17 17 18 18 18 18 19 19 19 19 19 20 19 19 19 19 21
17 15 17 21 20 18 19 18 14 15 17 12 14 15 15 15 15 16 16 16 16 16 15 15 16 16 16 17 17 17 18 18 18 18 18 18 18 18 18 18 19 19 18 17
18 15 16 18 18 18 18 18 13 11 12 14 15 14 15 14 14 14 14 14 15 16 16 16 17 16 16 16 16 16 16 17 17 17 17 18 18 18 18 18 18 18 18 19
18 11 16 16 18 17 19 18 16 15 14 12 13 13 14 13 12 13 14 14 15 15 15 16 16 16 16 16 17 17 18 17 17 17 17 17 17 17 17 17 18 18 18 17
15 15 15 16 16 18 17 17 18 19 15 17 13 13 12 12 12 12 13 15 16 16 16 16 16 17 17 17 17 18 18 18 18 18 19 19 18 17 16 16 16 16 17 17
12 14 16 16 15 17 16 15 15 14 13 13 13 13 13 13 13 12 12 13 14 15 15 15 15 15 16 16 15 15 16 16 16 16 16 16 16 16 16 16 16 15 15 16
13 11 13 16 14 17 16 14 14 13 13 13 14 12 13 12 12 12 12 13 13 13 13 13 14 14 14 13 13 13 13 13 13 13 13 13 13 14 13 13 14 14 14 14
12 10 10 13 14 16 13 13 14 12 12 12 12 12 13 13 13 12 12 12 13 12 12 11 10 9 9 9 8 8 9 9 10 10 11 11 11 11 11 11 11 12 13 13
12 11 10 13 10 13 14 14 15 14 14 13 12 12 13 12 11 11 12 12 12 11 9 8 8 7 7 7 6 6 5 5 5 7 7 8 8 9 9 10 11 11 11 12
12 11 13 11 14 13 13 16 17 15 13 14 13 12 12 12 10 10 13 11 9 8 7 7 7 7 7 6 6 5 4 4 3 4 5 6 6 7 7 8 9 10 10 11
13 11 13 12 13 13 14 17 17 15 13 14 14 14 13 10 13 12 12 11 10 9 8 8 7 8 8 7 6 5 5 5 5 5 6 6 7 7 6 6 8 9 10 10
15 13 12 10 13 16 16 16 15 14 15 16 14 13 13 13 13 13 12 11 10 9 9 8 8 9 8 7 6 5 5 5 5 5 5 5 5 6 7 6 5 6 6 9
15 13 12 12 12 13 14 16 16 17 18 15 14 13 13 12 13 12 11 10 10 9 8 8 8 8 8 7 6 6 6 5 5 5 5 5 5 5 6 6 6 6 6 7
13 12 10 12 12 13 15 16 16 16 16 15 14 13 13 13 12 11 10 10 9 9 9 8 8 8 8 7 6 6 5 5 5 5 5 5 5 6 6 7 6 6 6 7
12 13 10 10 11 13 15 15 16 15 15 14 13 13 13 12 12 11 10 9 9 9 9 9 9 8 8 7 6 7 7 6 6 5 5 5 6 6 7 7 8 8 7 8
13 11 11 11 16 15 17 18 16 15 15 14 13 13 12 12 11 10 10 9 9 9 9 9 9 9 9 9 9 9 8 8 7 6 6 5 6 6 6 7 9 9 9 9
Height
1507 1514 1521 1514 1513 1511 1512 1520 1522 1517 1515 1521 1525 1529 1530 1532 1537 1542 1544 1546 1549 1551 1554 1557 1560 1565 1568 1571 1574 1576 1579 1581 1584 1586 1587 1589 1590 1592 1594 1595 1596 1597 1598 1599
1512 1515 1505 1504 1506 1510 1513 1522 1524 1514 1514 1520 1527 1529 1528 1529 1531 1536 1541 1543 1546 1550 1553 1556 1558 1561 1564 1567 1571 1575 1577 1580 1582 1584 1586 1587 1588 1590 1592 1593 1594 1595 1596 1597
1515 1506 1504 1502 1506 1512 1513 1521 1518 1520 1519 1522 1527 1535 1531 1529 1531 1536 1539 1541 1545 1547 1550 1553 1555 1557 1561 1565 1568 1572 1575 1577 1579 1582 1584 1585 1586 1587 1588 1590 1591 1593 1594 1595
1510 1502 1503 1504 1508 1511 1516 1509 1512 1520 1528 1545 1527 1557 1535 1529 1529 1531 1534 1537 1541 1544 1547 1550 1553 1556 1559 1563 1566 1570 1573 1575 1578 1580 1582 1583 1584 1584 1585 1586 1589 1590 1591 1592
1510 1504 1505 1508 1508 1509 1514 1509 1514 1519 1535 1536 1538 1551 1542 1529 1533 1527 1529 1532 1537 1541 1544 1548 1550 1553 1557 1561 1565 1569 1571 1574 1576 1579 1580 1582 1583 1583 1584 1584 1584 1586 1588 1589
1505 1502 1502 1502 1504 1504 1508 1515 1526 1536 1544 1559 1550 1555 1556 1547 1540 1531 1528 1531 1535 1541 1546 1547 1549 1550 1555 1560 1563 1567 1569 1572 1574 1577 1579 1580 1581 1582 1582 1582 1581 1582 1582 1583
1511 1506 1502 1501 1506 1508 1513 1531 1561 1560 1565 1566 1554 1556 1544 1539 1531 1523 1523 1528 1536 1543 1548 1549 1549 1552 1556 1558 1561 1565 1567 1569 1572 1574 1576 1577 1577 1578 1578 1578 1578 1577 1577 1577
1528 1530 1506 1502 1506 1515 1522 1528 1557 1564 1575 1564 1549 1564 1553 1536 1531 1526 1526 1529 1535 1542 1547 1553 1555 1553 1555 1556 1559 1562 1564 1567 1568 1571 1572 1572 1572 1572 1572 1572 1571 1570 1570 1570
1525 1521 1505 1503 1504 1509 1522 1535 1531 1562 1567 1565 1556 1546 1541 1540 1537 1536 1535 1536 1538 1543 1545 1551 1556 1553 1556 1557 1560 1561 1564 1565 1567 1567 1567 1567 1567 1567 1566 1565 1564 1562 1561 1561
1512 1525 1510 1507 1508 1512 1513 1525 1541 1555 1567 1572 1562 1558 1559 1548 1547 1543 1542 1542 1543 1545 1550 1554 1557 1557 1559 1560 1561 1563 1564 1564 1565 1565 1564 1564 1564 1563 1562 1560 1558 1556 1555 1553
1508 1518 1518 1513 1524 1525 1526 1530 1546 1554 1563 1570 1580 1568 1556 1554 1550 1547 1546 1546 1546 1548 1550 1554 1557 1558 1560 1564 1564 1564 1564 1563 1563 1563 1563 1563 1562 1561 1559 1556 1553 1550 1547 1547
1508 1523 1537 1527 1521 1521 1521 1529 1538 1553 1558 1569 1567 1572 1556 1554 1552 1549 1551 1551 1553 1553 1555 1557 1560 1561 1563 1562 1563 1563 1562 1561 1561 1559 1559 1559 1558 1556 1554 1552 1549 1545 1542 1540
1504 1529 1547 1541 1531 1523 1528 1528 1538 1545 1551 1560 1566 1573 1557 1556 1554 1554 1553 1554 1554 1555 1556 1557 1557 1559 1559 1561 1561 1560 1559 1557 1556 1556 1555 1552 1552 1551 1549 1546 1543 1541 1538 1535
1499 1532 1532 1547 1538 1534 1531 1531 1532 1539 1552 1562 1562 1562 1559 1557 1556 1556 1555 1556 1557 1556 1556 1557 1557 1558 1558 1557 1556 1555 1554 1554 1552 1549 1547 1544 1543 1541 1540 1538 1537 1534 1531 1529
1506 1532 1531 1533 1531 1529 1533 1533 1531 1530 1541 1543 1554 1558 1559 1557 1556 1557 1556 1556 1556 1556 1556 1557 1557 1556 1555 1554 1553 1552 1551 1549 1546 1543 1539 1536 1535 1534 1532 1529 1526 1525 1524 1521
1512 1534 1529 1536 1533 1530 1537 1537 1536 1538 1545 1549 1550 1559 1556 1557 1558 1558 1558 1559 1560 1560 1561 1560 1559 1558 1556 1554 1552 1549 1547 1544 1541 1537 1533 1531 1528 1526 1523 1520 1517 1514 1512 1511
1519 1533 1540 1542 1540 1534 1545 1545 1542 1543 1542 1542 1551 1552 1555 1558 1559 1559 1559 1559 1560 1560 1559 1558 1557 1555 1552 1550 1547 1543 1539 1535 1532 1526 1522 1518 1515 1512 1510 1508 1505 1503 1501 1499
1523 1534 1543 1549 1544 1555 1550 1541 1540 1544 1546 1546 1547 1551 1554 1556 1557 1557 1558 1558 1558 1558 1558 1556 1555 1553 1551 1547 1543 1539 1534 1528 1521 1515 1511 1508 1504 1500 1497 1493 1491 1490 1489 1486
1515 1528 1548 1551 1566 1557 1550 1544 1540 1543 1550 1547 1548 1551 1554 1556 1557 1556 1556 1557 1558 1557 1555 1554 1552 1549 1546 1542 1538 1532 1526 1520 1514 1507 1501 1497 1493 1488 1485 1481 1478 1477 1476 1473
1518 1521 1533 1551 1551 1563 1544 1535 1535 1536 1554 1543 1545 1548 1551 1553 1561 1554 1554 1556 1555 1553 1552 1550 1548 1545 1542 1537 1530 1524 1517 1511 1505 1499 1494 1490 1485 1479 1473 1469 1464 1462 1462 1459
1532 1535 1541 1547 1549 1546 1535 1533 1535 1551 1552 1537 1541 1544 1548 1551 1551 1551 1551 1552 1552 1551 1550 1549 1546 1543 1539 1532 1525 1518 1511 1505 1498 1492 1487 1481 1476 1470 1464 1456 1452 1448 1445 1445
1528 1537 1544 1551 1550 1545 1531 1535 1541 1535 1532 1534 1538 1542 1545 1547 1548 1548 1549 1549 1549 1548 1547 1546 1543 1540 1536 1530 1522 1515 1508 1500 1493 1486 1479 1470 1463 1455 1449 1443 1437 1435 1432 1430
1530 1529 1535 1537 1539 1528 1528 1529 1530 1530 1531 1534 1537 1541 1544 1545 1545 1545 1546 1545 1545 1544 1543 1542 1539 1535 1532 1527 1520 1512 1504 1497 1488 1480 1471 1461 1452 1443 1436 1430 1423 1419 1419 1417
1524 1524 1530 1532 1531 1529 1529 1529 1529 1529 1531 1533 1537 1539 1541 1541 1542 1542 1542 1542 1542 1541 1540 1538 1535 1532 1527 1522 1518 1511 1502 1494 1485 1475 1464 1452 1440 1430 1423 1416 1411 1405 1404 1404
1523 1523 1530 1532 1529 1529 1527 1527 1528 1529 1530 1532 1535 1537 1538 1539 1539 1539 1539 1540 1540 1539 1537 1535 1531 1528 1522 1518 1512 1505 1498 1490 1482 1471 1459 1445 1433 1422 1412 1402 1396 1392 1390 1392
1518 1522 1528 1530 1520 1521 1522 1523 1524 1526 1527 1530 1532 1534 1536 1537 1537 1537 1537 1537 1537 1536 1534 1532 1528 1524 1518 1512 1505 1500 1494 1487 1478 1468 1457 1443 1431 1419 1406 1394 1384 1382 1381 1381
Wind_Speed
4 4 4 7 6 5 4 3 3 4 7 4 6 5 12 21 19 18 22 26 29 30 26 24 23 22 24 23 21 21 22 23 20 19 18 19 17 15 16 14 13 12 10 11
5 3 3 6 4 6 4 3 5 2 5 4 5 6 13 20 22 25 24 28 30 29 27 27 29 28 27 26 25 24 22 22 21 20 19 18 16 16 17 17 16 15 13 13
4 4 1 4 4 5 2 6 4 3 5 3 5 2 9 12 15 20 23 28 31 31 26 26 27 30 28 29 27 25 23 22 22 21 21 20 21 22 21 22 21 19 17 15
4 4 2 5 2 3 3 2 5 8 4 3 2 3 3 10 15 18 24 27 30 30 27 25 26 28 29 26 21 22 23 21 23 20 20 21 20 20 20 24 25 24 23 21
5 5 3 4 4 5 3 4 4 4 5 4 4 3 5 3 11 15 22 32 31 26 25 24 26 28 26 25 24 24 23 22 23 23 21 22 23 22 19 18 24 28 27 27
3 4 1 1 3 4 5 6 8 5 3 2 3 4 3 3 5 7 15 27 27 24 18 20 24 27 25 24 24 24 22 24 26 26 26 26 26 24 24 21 21 23 28 30
4 4 4 1 3 4 7 6 3 3 3 5 5 4 1 9 9 13 15 22 25 18 14 12 12 7 18 21 21 21 20 20 28 27 26 27 28 28 28 27 26 25 26 29
4 3 2 4 3 5 3 6 6 5 4 3 4 4 6 5 11 13 18 26 29 21 13 2 3 6 7 14 19 20 18 20 21 23 24 25 27 28 30 31 31 31 32 31
4 3 3 4 2 3 3 2 4 7 3 3 2 2 3 10 10 12 15 18 21 20 13 12 2 4 7 7 6 6 7 9 10 15 17 19 21 26 30 32 34 36 38 37
6 4 2 2 3 8 3 5 3 3 4 2 3 3 4 8 8 8 10 8 7 11 12 10 8 8 12 11 9 7 3 1 3 6 9 12 16 20 23 28 32 33 32 31
4 3 3 4 6 1 4 3 7 6 3 5 3 2 5 2 3 7 13 17 15 8 7 11 16 14 11 7 5 6 5 6 7 7 7 9 10 13 16 19 22 23 24 25
1 5 4 2 2 2 2 3 4 5 3 1 3 2 3 5 8 15 17 23 24 26 25 21 15 13 10 8 6 6 8 11 14 17 19 19 19 20 21 22 24 25 24 24
6 3 4 6 6 4 5 3 4 4 3 2 5 4 3 9 13 16 24 23 22 19 18 15 12 9 6 4 6 8 10 13 17 20 24 26 26 26 27 29 31 29 26 27
8 4 5 7 5 3 2 4 3 4 3 6 4 8 4 4 7 15 20 18 17 15 12 9 8 9 11 14 17 19 20 21 24 27 29 32 34 33 34 35 34 34 35 30
5 4 4 4 3 2 2 2 5 2 4 2 7 5 6 5 7 11 13 13 12 13 14 15 17 19 21 23 25 27 29 32 34 36 38 40 41 40 39 39 40 40 35 36
4 2 3 3 5 4 3 7 5 5 5 7 14 6 5 12 13 11 10 9 11 13 15 18 20 23 25 29 32 34 36 37 39 41 43 43 44 44 44 44 45 45 43 40
4 6 3 2 4 4 3 5 2 3 4 8 10 5 9 5 8 7 5 6 10 14 17 19 21 23 26 29 31 35 40 43 44 46 45 45 45 45 44 41 43 46 47 44
5 4 2 3 3 2 5 3 8 9 6 6 9 7 11 8 5 7 4 3 13 14 15 15 16 18 20 22 25 29 31 32 36 42 45 47 46 46 45 45 44 43 43 47
5 5 4 4 3 2 3 5 2 4 1 1 7 9 8 6 5 7 10 6 13 8 9 12 15 17 22 27 33 36 39 38 37 35 38 41 47 50 49 50 50 49 47 48
6 7 5 2 4 6 6 4 6 6 2 14 11 11 8 5 1 5 8 9 3 5 8 12 16 20 26 31 34 37 37 38 38 32 31 33 40 45 51 54 56 55 50 50
3 3 4 2 2 4 5 5 8 4 6 22 20 16 14 6 7 3 5 4 1 4 6 10 15 22 27 35 40 38 37 36 34 33 35 38 39 42 46 51 55 60 59 51
4 5 2 2 3 3 8 5 7 5 5 24 22 18 14 10 7 6 7 5 3 4 6 12 17 23 27 36 38 35 38 37 37 36 36 41 43 44 48 50 50 48 52 49
1 4 5 5 5 2 10 4 6 7 9 21 20 17 13 11 8 7 8 7 6 10 10 13 19 25 29 31 29 34 36 39 36 36 42 46 44 41 43 47 49 48 44 44
2 2 4 3 2 4 6 6 7 10 9 15 16 14 12 9 7 8 8 6 7 6 8 13 20 26 26 21 23 33 35 34 35 43 45 49 44 40 37 41 43 46 43 39
3 4 5 1 4 4 12 13 10 12 10 12 13 11 8 9 8 10 9 6 6 8 12 16 23 27 26 21 18 27 36 35 37 42 51 49 46 38 34 38 38 38 36 35
6 6 4 5 10 6 6 6 15 17 17 14 13 12 11 8 9 10 9 9 10 12 15 19 23 24 22 22 24 30 30 35 36 43 49 54 48 41 34 34 27 24 25 24
Wind_Direction
33 65 212 222 209 200 168 175 217 220 166 131 181 152 180 183 186 188 193 201 212 217 220 219 219 219 214 210 207 205 205 204 206 213 223 230 227 223 223 231 242 250 256 262
16 242 220 268 219 206 255 177 247 314 139 129 168 200 185 190 199 194 194 202 213 216 224 224 224 227 223 218 215 216 216 216 219 225 234 240 240 244 245 245 249 247 253 261
178 226 290 230 81 117 107 162 166 162 109 57 110 313 188 207 200 206 210 211 215 219 220 219 223 226 228 223 223 221 222 224 227 232 235 241 243 247 249 248 250 251 258 261
226 279 144 126 78 127 104 139 110 125 98 183 69 263 255 206 202 201 208 211 217 220 225 227 222 222 225 224 227 228 228 230 233 237 240 245 251 256 266 266 260 259 261 262
256 349 40 131 172 166 179 66 63 96 96 93 358 80 306 156 208 211 200 211 214 217 225 227 228 227 225 225 229 228 233 236 238 240 246 252 258 261 271 278 266 260 264 268
256 303 360 114 69 67 137 62 40 58 88 48 338 138 304 347 299 260 207 201 210 213 226 241 231 224 224 226 229 231 235 242 241 242 248 256 262 271 275 281 281 274 267 264
354 318 311 112 83 37 70 60 359 355 12 205 306 73 44 318 318 244 179 165 182 193 204 223 217 219 221 229 233 241 239 252 248 250 258 262 265 269 274 276 280 285 281 272
138 336 356 349 104 162 62 143 151 209 190 218 357 4 311 346 36 74 124 145 154 174 180 67 179 178 207 220 240 247 251 257 259 263 265 270 273 275 276 279 282 284 282 280
139 266 312 54 61 99 168 83 166 106 4 74 251 118 91 24 43 59 89 119 143 171 195 223 254 151 182 190 218 246 259 264 271 266 270 277 282 277 276 278 280 283 284 280
198 100 360 335 86 39 114 145 68 16 131 133 20 66 344 356 12 38 47 88 142 187 217 217 188 130 108 120 124 129 129 79 325 311 299 290 287 286 286 286 289 291 293 296
128 97 270 46 22 230 1 39 53 109 102 144 130 262 1 41 31 77 79 92 98 127 163 161 157 136 129 102 78 51 36 19 6 353 331 321 312 309 310 312 311 312 302 291
131 120 81 125 321 269 99 108 127 119 207 72 125 265 358 44 40 80 76 94 92 90 93 105 99 97 89 67 36 2 346 339 330 324 321 321 321 322 324 324 322 322 318 309
182 24 72 356 352 5 43 37 109 105 100 190 128 222 94 76 68 79 86 93 87 86 86 85 89 69 49 9 336 326 321 318 313 310 308 307 307 309 309 310 312 314 314 309
94 85 143 181 183 173 7 357 85 108 109 165 190 150 150 90 78 74 82 78 75 65 53 42 22 359 338 326 319 312 307 303 302 300 299 299 302 305 305 304 302 302 305 308
89 97 86 70 26 122 91 349 338 84 141 138 169 122 170 154 121 86 79 63 46 27 10 355 341 330 321 313 306 299 294 292 290 289 288 289 290 291 293 295 297 297 295 296
20 141 122 56 6 24 74 12 50 60 110 69 117 108 148 130 121 100 80 56 27 0 341 332 326 318 312 307 303 298 293 289 287 284 284 283 285 284 283 284 286 288 291 293
75 128 97 192 349 34 9 341 359 65 33 144 149 185 144 144 141 132 101 40 360 341 333 329 323 317 312 310 308 303 299 296 291 289 287 287 287 286 285 280 277 279 283 287
113 90 71 136 38 161 283 323 107 104 57 97 107 124 141 147 171 172 183 356 345 333 331 334 342 347 345 342 340 330 323 312 300 290 285 284 285 284 284 283 279 277 277 280
71 116 72 111 71 146 340 255 199 120 260 200 137 151 148 121 151 243 240 272 315 328 359 7 8 4 356 350 339 331 326 321 312 299 295 292 283 281 281 280 280 279 281 280
61 72 103 109 128 190 234 213 168 129 304 201 181 170 159 132 121 258 220 265 325 25 12 8 0 355 348 346 339 338 337 331 325 319 311 304 300 296 288 283 281 281 280 282
33 21 115 127 141 279 242 162 149 97 238 185 195 191 186 185 222 287 287 304 339 353 359 353 353 350 349 346 341 335 333 332 324 316 311 307 303 298 295 291 282 278 279 279
156 131 141 91 98 244 174 125 159 206 179 189 195 200 205 233 257 263 262 259 279 333 342 342 345 345 342 343 343 340 334 326 323 320 317 315 311 302 298 295 292 283 279 279
64 171 179 165 212 242 186 207 210 194 189 192 200 201 212 228 251 261 261 277 293 324 339 345 337 334 344 344 350 341 343 339 330 326 333 326 321 307 296 293 291 285 279 275
355 151 92 82 269 230 213 216 217 207 203 198 202 207 215 237 252 256 255 288 323 338 336 332 327 329 332 347 355 350 342 340 341 342 337 331 328 320 304 293 287 280 273 269
189 140 140 336 268 261 241 233 231 214 214 203 204 214 228 241 261 265 266 270 309 320 325 325 325 329 328 308 327 345 349 351 347 345 349 344 345 341 325 312 290 281 275 267
185 167 153 217 203 191 232 258 235 224 228 225 219 220 226 241 269 273 277 289 299 305 316 321 325 328 317 327 327 322 336 337 344 346 352 351 350 355 348 349 305 285 278 269